PPNOB SBRJ-SBSP

Flight info

Callsign PPNOB
Flight time N/A
Altitude 330
Route NAXOP UZ45 IBDAL
Aircraft B737/M-SGWR/S

Departure

Time N/A
Airport Santos Dumont Airport (SBRJ)

Arrival

Time 2026-05-05 19:23
Airport Congonhas–Deputado Freitas Nobre Airport (SBSP)
Time Latitude Longitude Altitude Speed Heading
2026-05-05 18:54 -23.10754 -43.69287 22105 ft 385 kts 252°
2026-05-05 18:54 -23.11498 -43.72096 22729 ft 388 kts 252°
2026-05-05 18:54 -23.12243 -43.74933 23318 ft 392 kts 252°
2026-05-05 18:54 -23.12987 -43.77794 23873 ft 395 kts 252°
2026-05-05 18:55 -23.13731 -43.80675 24392 ft 396 kts 252°
2026-05-05 18:55 -23.14475 -43.83561 24923 ft 397 kts 252°
2026-05-05 18:55 -23.15217 -43.86443 25435 ft 398 kts 252°
2026-05-05 18:55 -23.15967 -43.89346 25917 ft 399 kts 252°
2026-05-05 18:56 -23.16721 -43.92257 26386 ft 401 kts 252°
2026-05-05 18:56 -23.17470 -43.95140 26860 ft 402 kts 252°
2026-05-05 18:56 -23.18240 -43.98089 27092 ft 409 kts 252°
2026-05-05 18:56 -23.19027 -44.01093 27354 ft 415 kts 252°
2026-05-05 18:57 -23.19827 -44.04138 27534 ft 422 kts 252°
2026-05-05 18:57 -23.20638 -44.07227 27695 ft 429 kts 252°
2026-05-05 18:57 -23.21469 -44.10372 27894 ft 435 kts 252°
2026-05-05 18:57 -23.22309 -44.13556 27954 ft 443 kts 252°
2026-05-05 18:58 -23.23165 -44.16797 28063 ft 449 kts 252°
2026-05-05 18:58 -23.24033 -44.20083 28138 ft 455 kts 252°
2026-05-05 18:58 -23.25808 -44.26795 28168 ft 467 kts 252°
2026-05-05 18:59 -23.27605 -44.33598 28143 ft 466 kts 252°
2026-05-05 18:59 -23.29388 -44.40370 28156 ft 465 kts 252°
2026-05-05 19:00 -23.31159 -44.47110 28156 ft 466 kts 252°
2026-05-05 19:00 -23.32937 -44.53893 28154 ft 466 kts 252°
2026-05-05 19:01 -23.34710 -44.60681 28160 ft 466 kts 253°
2026-05-05 19:01 -23.36029 -44.67597 28170 ft 467 kts 258°
2026-05-05 19:02 -23.37139 -44.74527 28174 ft 468 kts 258°
2026-05-05 19:02 -23.38233 -44.81511 28171 ft 468 kts 258°
2026-05-05 19:03 -23.39316 -44.88481 28159 ft 467 kts 258°
2026-05-05 19:03 -23.40398 -44.95470 28172 ft 468 kts 258°
2026-05-05 19:04 -23.41482 -45.02478 28179 ft 469 kts 258°
2026-05-05 19:04 -23.42565 -45.09482 28178 ft 469 kts 258°
2026-05-05 19:05 -23.43642 -45.16448 28193 ft 469 kts 258°
2026-05-05 19:05 -23.44731 -45.23475 28180 ft 470 kts 258°
2026-05-05 19:06 -23.45812 -45.30486 28182 ft 469 kts 258°
2026-05-05 19:06 -23.46890 -45.37501 28178 ft 469 kts 258°
2026-05-05 19:07 -23.47964 -45.44505 28123 ft 470 kts 258°
2026-05-05 19:07 -23.48504 -45.48027 27588 ft 469 kts 259°
2026-05-05 19:07 -23.49038 -45.51515 27091 ft 464 kts 259°
2026-05-05 19:08 -23.49568 -45.54966 26605 ft 461 kts 259°
2026-05-05 19:08 -23.50100 -45.58418 26128 ft 464 kts 259°
2026-05-05 19:08 -23.50585 -45.61928 25661 ft 471 kts 261°
2026-05-05 19:08 -23.50998 -45.65432 25196 ft 472 kts 261°
2026-05-05 19:09 -23.51395 -45.68980 24740 ft 471 kts 262°
2026-05-05 19:09 -23.51786 -45.72512 24293 ft 469 kts 262°
2026-05-05 19:09 -23.52175 -45.76037 23850 ft 468 kts 262°
2026-05-05 19:09 -23.52563 -45.79551 23342 ft 467 kts 262°
2026-05-05 19:10 -23.52951 -45.83044 22826 ft 465 kts 262°
2026-05-05 19:10 -23.53341 -45.86545 22313 ft 462 kts 262°
2026-05-05 19:10 -23.53729 -45.90011 21810 ft 459 kts 262°
2026-05-05 19:10 -23.54116 -45.93453 21321 ft 456 kts 262°
2026-05-05 19:11 -23.54502 -45.96875 20835 ft 453 kts 262°
2026-05-05 19:11 -23.54887 -46.00276 20353 ft 450 kts 262°
2026-05-05 19:11 -23.55269 -46.03649 19885 ft 447 kts 262°
2026-05-05 19:11 -23.55649 -46.06999 19424 ft 444 kts 262°
2026-05-05 19:12 -23.56027 -46.10338 18973 ft 442 kts 262°
2026-05-05 19:12 -23.56391 -46.13558 18538 ft 439 kts 262°
2026-05-05 19:12 -23.56760 -46.16808 18045 ft 437 kts 262°
2026-05-05 19:12 -23.57130 -46.20066 17550 ft 435 kts 262°
2026-05-05 19:13 -23.57503 -46.23346 17049 ft 432 kts 262°
2026-05-05 19:13 -23.57873 -46.26583 16559 ft 428 kts 262°
2026-05-05 19:13 -23.58244 -46.29788 16080 ft 424 kts 262°
2026-05-05 19:13 -23.58615 -46.32965 15612 ft 421 kts 262°
2026-05-05 19:14 -23.58989 -46.36113 15136 ft 415 kts 262°
2026-05-05 19:14 -23.59352 -46.39123 14689 ft 404 kts 262°
2026-05-05 19:14 -23.59719 -46.42126 14223 ft 395 kts 262°
2026-05-05 19:14 -23.60084 -46.45065 13738 ft 388 kts 262°
2026-05-05 19:15 -23.60447 -46.47956 13244 ft 381 kts 262°
2026-05-05 19:15 -23.60803 -46.50792 12739 ft 374 kts 262°
2026-05-05 19:15 -23.61152 -46.53572 12271 ft 368 kts 262°
2026-05-05 19:15 -23.61497 -46.56324 11777 ft 362 kts 262°
2026-05-05 19:16 -23.61829 -46.58988 11292 ft 347 kts 262°
2026-05-05 19:16 -23.62148 -46.61547 10810 ft 334 kts 262°
2026-05-05 19:16 -23.62430 -46.64013 10341 ft 323 kts 265°
2026-05-05 19:16 -23.62254 -46.66373 9845 ft 314 kts 285°
2026-05-05 19:17 -23.61416 -46.68569 9342 ft 305 kts 300°
2026-05-05 19:17 -23.60272 -46.70465 8853 ft 301 kts 306°
2026-05-05 19:17 -23.58960 -46.72380 8548 ft 317 kts 308°
2026-05-05 19:17 -23.57567 -46.74246 8298 ft 316 kts 311°
2026-05-05 19:18 -23.56035 -46.75936 8042 ft 309 kts 317°
2026-05-05 19:18 -23.54449 -46.77479 7740 ft 301 kts 322°
2026-05-05 19:18 -23.52651 -46.78470 7462 ft 280 kts 348°
2026-05-05 19:18 -23.50806 -46.78466 7237 ft 254 kts 16°
2026-05-05 19:19 -23.49377 -46.77580 6982 ft 226 kts 50°
2026-05-05 19:19 -23.48818 -46.76107 6691 ft 206 kts 91°
2026-05-05 19:19 -23.49294 -46.74722 6208 ft 197 kts 134°
2026-05-05 19:19 -23.50483 -46.73973 5430 ft 208 kts 156°
2026-05-05 19:20 -23.51788 -46.73220 4882 ft 208 kts 148°
2026-05-05 19:20 -23.52976 -46.72397 4612 ft 200 kts 147°
2026-05-05 19:20 -23.54124 -46.71591 4368 ft 193 kts 148°
2026-05-05 19:20 -23.55207 -46.70837 4148 ft 176 kts 148°
2026-05-05 19:21 -23.56187 -46.70154 3930 ft 159 kts 148°
2026-05-05 19:21 -23.57077 -46.69537 3803 ft 143 kts 148°
2026-05-05 19:21 -23.57880 -46.68975 3617 ft 132 kts 147°
2026-05-05 19:21 -23.58646 -46.68442 3470 ft 130 kts 147°
2026-05-05 19:22 -23.59415 -46.67907 3305 ft 133 kts 146°
2026-05-05 19:22 -23.60219 -46.67347 3134 ft 140 kts 146°
2026-05-05 19:22 -23.61056 -46.66771 2914 ft 143 kts 146°
2026-05-05 19:22 -23.61853 -46.66217 2719 ft 140 kts 145°
2026-05-05 19:23 -23.62583 -46.65686 2605 ft 124 kts 145°
2026-05-05 19:23 -23.62900 -46.65465 2607 ft 0 kts 149°
2026-05-05 19:23 -23.62906 -46.65465 2607 ft 2 kts 180°